Find Starlink 3655

NORAD ID: 51983 Int'l Des: 2022-025 Owner: SPXS Country: US Constellation: starlink operational
LEOCIRCULAR

Live Position

Loading 3D Globe...

About Starlink 3655

Description loading...

Upcoming Passes

Passes for default location (London). Set your location on the main map for personalized predictions.

Altitude History

Loading altitude history...

Two-Line Element Set

1 51983U 22025AD 26106.30224880 .00000208 00000-0 31133-4 0 9994
2 51983 53.2183 230.2756 0001324 79.5147 280.5994 15.08834194226738
Epoch: Apr 16, 2026 • Age: 5 hours

Current Status

Altitude 549.2 km
Velocity 7.59 km/s
Sub-Earth Point -29.64°S, 178.09°W
Launch Date Mar 9, 2022
Age 4.1 years
Type internet

Technical Details

Classification Payload
Mass 297.00 kg
Dry Mass 275.00 kg
Total Mass 297.00 kg
Length 0.20 m
Diameter 2.80 m
Span 9.00 m
Shape Box + pan
Manufacturer SPXS
Bus Type Starlink
Phase Status In Orbit
Owner/State SPXS/US

Most Searched